This demonstration page uses our WeatherBlox Daily Observations layout. Learn more.

Left ArrowRight Arrow

53.62937, 11.41316

Hourly Observations for October 10, 2015

Temp ( °F °C ) Dew Point ( °F °C ) Humidity (%) Winds ( mph kmh ) Pressure ( in mb ) Visibility ( mi km ) Precip ( " mm )
6:20 am 06:20 Mostly Clear 39 4 32 0 75 75 ENE 7 11 30.27 1025 7 11 N/A
6:50 am 06:50 Mostly Clear 36 2 32 0 87 87 NE 6 9 30.27 1025 7 11 N/A
7:20 am 07:20 Mostly Clear 37 3 34 1 87 87 ENE 5 7 30.27 1025 7 11 N/A
7:50 am 07:50 Mostly Sunny 37 3 36 2 93 93 ENE 3 6 30.27 1025 7 11 N/A
8:20 am 08:20 Mostly Sunny 39 4 36 2 87 87 NE 6 9 30.27 1025 7 11 N/A
8:50 am 08:50 Mostly Sunny 41 5 36 2 81 81 ENE 8 13 30.27 1025 7 11 N/A
9:20 am 09:20 Mostly Sunny 41 5 36 2 81 81 ENE 9 15 30.30 1026 7 11 N/A
9:50 am 09:50 Mostly Sunny 43 6 36 2 76 76 ENE 8 13 30.30 1026 7 11 N/A
10:20 am 10:20 Mostly Sunny 45 7 32 0 61 61 ENE 13 20 30.30 1026 7 11 N/A
10:50 am 10:50 Mostly Sunny 45 7 32 0 61 61 ENE 13 20 30.30 1026 7 11 N/A
11:20 am 11:20 Mostly Sunny 46 8 32 0 57 57 E 13 20 30.30 1026 7 11 N/A
11:50 am 11:50 Mostly Sunny 46 8 32 0 57 57 ENE 14 22 30.27 1025 7 11 N/A
12:20 pm 12:20 Mostly Sunny 48 9 30 -1 50 50 E 15 24 30.27 1025 7 11 N/A
12:50 pm 12:50 Mostly Sunny 48 9 30 -1 50 50 E 14 22 30.27 1025 7 11 N/A
1:20 pm 13:20 Mostly Sunny 48 9 30 -1 50 50 E 14 22 30.27 1025 7 11 N/A
1:50 pm 13:50 Mostly Sunny 50 10 34 1 54 54 E 13 20 30.27 1025 7 11 N/A
2:20 pm 14:20 Mostly Sunny 48 9 32 0 54 54 ENE 12 19 30.24 1024 7 11 N/A
2:50 pm 14:50 Mostly Sunny 50 10 32 0 50 50 ENE 13 20 30.24 1024 7 11 N/A
3:20 pm 15:20 Mostly Sunny 48 9 32 0 54 54 ENE 13 20 30.24 1024 7 11 N/A
3:50 pm 15:50 Mostly Sunny 48 9 30 -1 50 50 ENE 14 22 30.24 1024 7 11 N/A
4:20 pm 16:20 Mostly Sunny 48 9 30 -1 50 50 ENE 15 24 30.24 1024 7 11 N/A
4:50 pm 16:50 Mostly Sunny 48 9 30 -1 50 50 ENE 15 24 30.24 1024 7 11 N/A
5:20 pm 17:20 Mostly Sunny 48 9 30 -1 50 50 ENE 15 24 30.24 1024 7 11 N/A
5:50 pm 17:50 Mostly Sunny 46 8 30 -1 53 53 ENE 13 20 30.24 1024 7 11 N/A
6:20 pm 18:20 Mostly Sunny 45 7 30 -1 57 57 NE 9 15 30.24 1024 7 11 N/A
6:50 pm 18:50 Mostly Clear 41 5 30 -1 66 66 NE 9 15 30.24 1024 7 11 N/A

Powered by AerisWeather